User: anonymous   Login
Location: Asheville, NC
(35.6000°N, 82.5500°W)
Time: 20:46:18
(UTC-04:00)
Language:

BEESAT 3 - Orbit

View from above orbital plane
View from above orbital plane
View from above satellite
View from above satellite

Ground track
Ground track

The orbit data is extracted from the following two-line orbital elements,

1 39134U 13015E   18197.95420559 +.00000851 +00000-0 +49627-4 0  9991
2 39134 064.8635 030.6123 0008337 216.2822 143.7741 15.19252261289047
Epoch (UTC): 16 July 2018 22:54:03
Eccentricity: 0.0008337
inclination: 64.8635°
perigee height: 502 km
apogee height: 514 km
right ascension of ascending node: 30.6123°
argument of perigee: 216.2822°
revolutions per day: 15.19252261
mean anomaly at epoch: 143.7741°
orbit number at epoch: 28904

The dashed part of the orbit path shows where the satellite is in the earth's shadow,  

DLR